Find Starlink 2643

NORAD ID: 48367 Int'l Des: 2021-038 Owner: SPXS Country: US Constellation: starlink operational
LEOCIRCULAR

当前视图

正在加载3D地球...

About Starlink 2643

Starlink 2643 (NORAD 48367) is a starlink constellation satellite (v1.0) launched May 4, 2021 by SPXS of US. It operates in LEO, CIRCULAR orbit with a mass of 260.00 kg.

即将过境

Passes for default location (London). Set your location on the main map for personalized predictions.

高度历史

Loading altitude history...

两行轨道根数

1 48367U 21038Q 26263.93323603 .00000776 00000-0 36783-4 0 9991
2 48367 53.1607 156.7651 0001234 98.9190 261.1951 15.31698057297175
Epoch: Sep 20, 2026 • Age: 11 hours

当前状态

高度 471.3 km
远地点 / 近地点 N/A
速度 7.63 km/s
星下点 24.30°N, 31.59°E
发射日期 May 4, 2021
运行时间 5.3 years
类型 internet

技术详情

分类 Payload
质量 260.00 kg
干质量 248.00 kg
长度 0.20 m
跨度 9.00 m
形状 ? Box + pan
制造商 SPXS
平台类型 Starlink
阶段状态 In Orbit
所有者/国家 SPXS/US

Most Searched